FW8055 Weather Reports


time (UTC)temp
C
wind
direction
speed
KPH
gust
KPH
rain 1hr
cm
rain 24hr
cm
rain mn
cm
humidity
%
barometer
mb
20260902003053 19 23 0.0 8.0 0.00 0.00 0.00 65 1012.3
20260902001612 19 25 0.0 4.8 0.00 0.00 0.00 65 1012.4
20260902000055 19 0 1.6 8.0 0.00 0.00 0.00 65 1012.2
20260901234551 20 78 1.6 8.0 0.00 0.00 0.00 64 1012.1
20260901233100 20 21 1.6 6.4 0.00 0.00 0.00 63 1012.3
20260901231559 20 330 1.6 6.4 0.00 0.00 0.00 62 1012.1
20260901230055 20 338 1.6 6.4 0.00 0.00 0.00 61 1012.3
20260901224602 20 17 1.6 8.0 0.00 0.00 0.00 63 1012.3
20260901223059 19 24 1.6 6.4 0.00 0.00 0.00 63 1012.6
20260901221601 19 237 0.0 3.2 0.00 0.00 0.00 64 1012.5
20260901220055 20 0 0.0 3.2 0.00 0.00 0.00 62 1012.4
20260901214559 19 0 0.0 4.8 0.00 0.00 0.00 63 1012.4
20260901213116 19 42 0.0 6.4 0.00 0.00 0.00 63 1012.3
20260901211553 19 13 0.0 4.8 0.00 0.00 0.00 62 1012.4
20260901210110 19 21 0.0 3.2 0.00 0.00 0.00 62 1012.5
20260901204601 19 80 0.0 3.2 0.00 0.00 0.00 61 1012.4
20260901203055 19 0 0.0 6.4 0.00 0.00 0.00 61 1012.4
20260901201551 19 0 0.0 4.8 0.00 0.00 0.00 60 1012.6
20260901200053 19 0 1.6 4.8 0.00 0.00 0.00 60 1012.8
20260901194553 19 0 0.0 6.4 0.00 0.00 0.00 63 1012.8
20260901193057 19 132 1.6 8.0 0.00 0.00 0.00 63 1012.9
20260901191556 19 0 0.0 6.4 0.00 0.00 0.00 63 1012.9
20260901190055 18 0 0.0 8.0 0.00 0.00 0.00 67 1013.2
20260901184558 18 0 0.0 6.4 0.00 0.00 0.00 68 1013.3
20260901183106 18 228 1.6 8.0 0.00 0.00 0.00 70 1013.4
20260901181558 17 56 0.0 4.8 0.00 0.00 0.00 71 1013.4
20260901180055 17 52 0.0 6.4 0.00 0.00 0.00 71 1013.3
20260901174600 17 0 1.6 4.8 0.00 0.00 0.00 71 1013.3
20260901173055 17 244 0.0 4.8 0.00 0.00 0.00 73 1013.3
20260901171602 17 20 0.0 3.2 0.00 0.00 0.00 75 1013.3
20260901170055 17 0 0.0 6.4 0.00 0.00 0.00 76 1013.3
20260901164551 16 0 0.0 4.8 0.00 0.00 0.00 78 1013.3
20260901163103 16 0 1.6 4.8 0.00 0.00 0.00 77 1013.3
20260901161614 16 0 0.0 6.4 0.00 0.00 0.00 79 1013.4
20260901154614 16 0 0.0 4.8 0.00 0.00 0.00 79 1013.3
20260901153053 16 0 0.0 0.0 0.00 0.00 0.00 79 1013.3
20260901151601 16 0 0.0 0.0 0.00 0.00 0.00 80 1013.4
20260901150105 15 0 0.0 0.0 0.00 0.00 0.00 79 1013.2
20260901144552 15 0 0.0 0.0 0.00 0.00 0.00 79 1013.1
20260901143052 15 0 0.0 0.0 0.00 0.00 0.00 80 1013.1
20260901141602 15 0 0.0 0.0 0.00 0.00 0.00 80 1012.9
20260901134556 15 0 0.0 0.0 0.00 0.00 0.00 79 1012.7
20260901133054 15 0 0.0 1.6 0.00 0.00 0.00 80 1012.7
20260901131602 15 0 0.0 1.6 0.00 0.00 0.00 79 1012.7
20260901124553 15 0 0.0 3.2 0.00 0.00 0.00 79 1012.5
20260901123104 15 0 0.0 1.6 0.00 0.00 0.00 79 1012.5
20260901121555 15 0 0.0 0.0 0.00 0.00 0.00 79 1012.5
20260901120112 15 0 0.0 0.0 0.00 0.00 0.00 79 1012.5
20260901114557 15 0 0.0 0.0 0.00 0.00 0.00 79 1012.5
20260901113059 15 0 0.0 0.0 0.00 0.00 0.00 79 1012.4
20260901111601 15 0 0.0 0.0 0.00 0.00 0.00 79 1012.3
20260901104556 15 0 0.0 0.0 0.00 0.00 0.00 79 1012.4
20260901103101 15 0 0.0 0.0 0.00 0.00 0.00 79 1012.3
20260901101553 15 0 0.0 0.0 0.00 0.00 0.00 79 1012.3
20260901100056 15 0 0.0 0.0 0.00 0.00 0.00 79 1012.3
20260901094555 15 0 0.0 0.0 0.00 0.00 0.00 79 1012.3
20260901093100 15 0 0.0 0.0 0.00 0.00 0.00 79 1012.4
20260901091609 15 0 0.0 0.0 0.00 0.00 0.00 79 1012.5
20260901084607 15 0 0.0 1.6 0.00 0.00 0.00 80 1012.6
20260901083106 15 0 0.0 0.0 0.00 0.00 0.00 80 1012.6
20260901081556 15 0 0.0 4.8 0.00 0.00 0.00 81 1012.6
20260901074550 13 0 0.0 0.0 0.00 0.00 0.00 83 1012.4
20260901073106 13 0 0.0 0.0 0.00 0.00 0.00 82 1012.4
20260901071554 13 0 0.0 0.0 0.00 0.00 0.00 82 1012.3
20260901070058 14 0 0.0 0.0 0.00 0.00 0.00 81 1012.4
20260901064558 14 0 0.0 1.6 0.00 0.00 0.00 79 1012.4
20260901063057 15 0 0.0 0.0 0.00 0.00 0.00 79 1012.4
20260901061601 15 228 0.0 4.8 0.00 0.00 0.00 78 1012.5
20260901054554 15 0 0.0 3.2 0.00 0.00 0.00 76 1012.7
20260901053059 16 29 0.0 6.4 0.00 0.00 0.00 75 1012.5
20260901051604 16 0 0.0 4.8 0.00 0.00 0.00 74 1012.4
20260901050056 16 0 0.0 6.4 0.00 0.00 0.00 73 1012.3
20260901044551 17 22 0.0 8.0 0.00 0.00 0.00 70 1012.0
20260901043053 17 0 0.0 6.4 0.00 0.00 0.00 68 1011.8
20260901041554 18 9 1.6 6.4 0.00 0.00 0.00 65 1011.3
20260901040059 18 334 0.0 4.8 0.00 0.00 0.00 63 1011.1
20260901034555 19 0 0.0 6.4 0.00 0.00 0.00 61 1010.9
20260901033052 20 30 3.2 11.3 0.00 0.00 0.00 59 1010.5
20260901031547 20 248 1.6 8.0 0.00 0.00 0.00 58 1010.2
20260901030055 21 0 1.6 11.3 0.00 0.00 0.00 59 1009.8
20260901024554 21 40 1.6 8.0 0.00 0.00 0.00 57 1009.7
20260901023054 22 26 1.6 9.7 0.00 0.00 0.00 55 1009.3
20260901021555 22 66 3.2 16.1 0.00 0.00 0.00 53 1009.1
20260901020057 23 62 1.6 11.3 0.00 0.00 0.00 51 1009.0
20260901014555 24 22 1.6 8.0 0.00 0.00 0.00 50 1008.8
20260901013123 25 0 0.0 8.0 0.00 0.00 0.00 48 1008.6
20260901011554 26 56 1.6 6.4 0.00 0.00 0.00 47 1008.5
20260901010114 26 52 3.2 12.9 0.00 0.00 0.00 45 1008.6
20260901004600 27 53 1.6 14.5 0.00 0.00 0.00 44 1008.4